OpenBCM V1.13 (Linux)

Packet Radio Mailbox

DB0FHN

[JN59NK Nuernberg]

 Login: GUEST





  
LU1HVK > KEP      10.01.20 17:41l 243 Lines 12025 Bytes #999 (0) @ WW
BID : 38587_LU1HVK
Read: DJ6UX GUEST
Subj: TLE 19 10
Path: DB0FHN<OE2XZR<OE5XBL<F1OYP<IZ3LSV<IV3SCP<IW0QNL<JH4XSY<CT2KCK<LU4ECL<
      LU9HGS<LU1HVK
Sent: 200110/1535Z 38587@LU1HVK.2594.CBA.ARG.SA LinBPQ6.0.19

                         _    _   _ _ _   ___     ___  __
                        | |  | | | / | | | \ \   / / |/ /
                        | |  | | | | | |_| |\ \ / /| ' /
                        | |__| |_| | |  _  | \ V / | . \
                        |_____\___/|_|_| |_|  \_/  |_|\_\

     BBS/NODO - CORDOBA (LEONES-FF87UH) - LU1HVK-4 NODO - LU1HVK-3 APRS

+----------------------------------------------------------------------------+
OSCAR 7
1  7530U 74089B   19291.57944012 -.00000040  00000-0  28602-4 0  9994
2  7530 101.7618 258.0582 0012394 110.7922  25.0070 12.53640315 55792
OSCAR 11 (UoSAT 2)
1 14781U 84021B   19291.88432663 +.00000041 +00000-0 +11138-4 0  9991
2 14781 097.6047 310.7807 0006996 280.2639 079.7786 14.83112972895871
OSCAR 19 (LUSAT)
1 20442U 90005G   19291.79643901  .00000007  00000-0  18767-4 0  9997
2 20442  98.6594 233.6463 0012294 145.0494 215.1500 14.32935333553864
EYESAT A
1 22825U 93061C   19291.24159941 -.00000014  00000-0  12484-4 0  9994
2 22825  98.9135 282.7094 0008620  12.2879 347.8511 14.30068705359328
ITAMSAT
1 22826U 93061D   19291.77452985 -.00000011  00000-0  13531-4 0  9998
2 22826  98.9075 283.2312 0008903 359.1416   0.9749 14.30402911359607
RADIO ROSTO
1 23439U 94085A   19291.82019250 -.00000032 +00000-0 +30991-3 0  9997
2 23439 064.8147 278.6254 0145232 089.3943 272.3619 11.27568345021667
JAS 2
1 24278U 96046B   19291.63114856 +.00000003 +00000-0 +41990-4 0  9994
2 24278 098.5564 068.6002 0349300 283.9362 072.3168 13.53093994144042
TECHSAT 1B
1 25397U 98043D   19291.41612457 -.00000001 +00000-0 +18911-4 0  9998
2 25397 098.6982 230.1316 0002235 063.6037 296.5371 14.23672355104975
ISS (ZARYA)
1 25544U 98067A   19291.99566926  .00000354  00000-0  14154-4 0  9995
2 25544  51.6428 107.3489 0006987 161.7984 336.5199 15.50203555194467
PCSAT
1 26931U 01043C   19291.85023770 -.00000034 +00000-0 +18693-4 0  9992
2 26931 067.0525 048.4480 0007474 267.9371 092.0874 14.30555507942373
SAUDISAT 1C
1 27607U 02058C   19291.47251788 -.00000002 +00000-0 +20528-4 0  9995
2 27607 064.5566 037.2630 0074826 232.8310 126.5945 14.75579901904871
CUTE-1
1 27844U 03031E   19291.43547748 +.00000037 +00000-0 +36200-4 0  9991
2 27844 098.6854 297.8343 0010577 043.6896 316.5118 14.22199895845551
CUBESAT XI 4
1 27848U 03031J   19291.88460346 +.00000023 +00000-0 +30287-4 0  9996
2 27848 098.6928 298.8015 0010615 053.4094 306.8058 14.21792280845478
MOZHAYETS 4
1 27939U 03042A   19291.88302682 -.00000009 +00000-0 +70111-5 0  9993
2 27939 098.0586 065.4430 0013746 045.0764 315.1556 14.66809487858456
CUBESAT XI 5
1 28895U 05043F   19291.32898793 +.00000139 +00000-0 +35579-4 0  9991
2 28895 097.9772 070.0169 0016053 331.7545 028.2785 14.63700462745046
CUTE-1.7+APD II
1 32785U 08021C   19291.77678075 +.00000166 +00000-0 +23492-4 0  9992
2 32785 097.5566 285.7752 0012140 212.5905 147.4564 14.88358668621774
DELFI C3
1 32789U 08021G   19291.92015220 +.00000731 +00000-0 +52501-4 0  9991
2 32789 097.4518 337.8274 0013634 070.8047 289.4655 15.07181379625275
SEEDS
1 32791U 08021J   19291.79049942 +.00000153 +00000-0 +20816-4 0  9999
2 32791 097.5319 291.8705 0013110 184.5795 175.5306 14.90888564622229
YUBELEINY
1 32953U 08025A   19291.89953968 +.00000020 +00000-0 +75656-4 0  9991
2 32953 082.5008 068.7534 0018960 221.1211 138.8441 12.43091849517490
PRISM (HITOMI)
1 33493U 09002B   19291.80564452  .00000848  00000-0  79521-4 0  9997
2 33493  98.1223 217.3942 0016043 135.2441 225.0077 14.96762255583412
KKS-1 (KISEKI)
1 33499U 09002H   19291.87976877 +.00000047 +00000-0 +15005-4 0  9996
2 33499 098.3405 134.4407 0009239 170.0259 190.1134 14.75470133576810
SWISSCUBE
1 35932U 09051B   19291.75847453 +.00000105 +00000-0 +34670-4 0  9992
2 35932 098.5991 101.3956 0008236 144.8988 215.2753 14.56318990534509
BEESAT
1 35933U 09051C   19291.41063258  .00000086  00000-0  30497-4 0  9990
2 35933  98.6007 102.8455 0006195 155.9034 204.2453 14.56403696534600
ITUPSAT 1
1 35935U 09051E   19291.74489251  .00000084  00000-0  30601-4 0  9998
2 35935  98.6117 103.4185 0008558 155.3666 204.7940 14.55559131534398
XIWANG-1 (HOPE-1)
1 36122U 09072B   19291.72319050 -.00000040 +00000-0 +62040-5 0  9993
2 36122 100.0782 288.3893 0008221 063.3914 296.8042 13.16351641472931
TISAT 1
1 36799U 10035E   19291.67716990 +.00000223 +00000-0 +28556-4 0  9997
2 36799 098.1714 087.9993 0013207 050.3263 309.9117 14.91178664502748
JUGNU
1 37839U 11058B   19291.38027521 +.00000320 +00000-0 +28613-4 0  9994
2 37839 019.9623 316.8402 0018688 228.3681 248.2377 14.12661586414379
SRMSAT
1 37841U 11058D   19291.45749392 +.00000287 +00000-0 +12345-4 0  9999
2 37841 019.9735 015.6627 0011938 093.8976 356.3538 14.10641084413819
M-CUBED/EXP-1 PRIME
1 37855U 11061F   19291.81632723  .00001404  00000-0  77376-4 0  9994
2 37855 101.7174 250.1159 0173001  74.6748 287.3509 15.05653582435154
HORYU 2
1 38340U 12025D   19291.89276553 +.00000141 +00000-0 +28506-4 0  9996
2 38340 098.3169 334.0741 0012791 095.0957 265.1712 14.75760879388774
STRAND 1
1 39090U 13009E   19291.86928815 +.00000005 +00000-0 +17049-4 0  9993
2 39090 098.4762 135.7166 0008116 289.0039 071.0267 14.35100770347897
SOMP
1 39134U 13015E   19291.58423017  .00000969  00000-0  53024-4 0  9994
2 39134  64.8639 345.4635 0037216 283.2313  76.4664 15.20402952359122
BEESAT 3
1 39135U 13015F   19291.65809918 +.00000744 +00000-0 +46211-4 0  9992
2 39135 064.8695 005.2537 0037063 290.8095 068.9062 15.17659589358367
BEESAT 2
1 39136U 13015G   19291.21424780 +.00000674 +00000-0 +43660-4 0  9992
2 39136 064.8703 010.8594 0028698 296.1553 063.6622 15.17075761358217
CUBEBUG 1
1 39153U 13018D   19291.27555927  .00000191  00000-0  31742-4 0  9990
2 39153  97.9812  28.7363 0017466 160.4382 199.7503 14.80608465349806
ZACUBE
1 39417U 13066B   19291.44316355 +.00000184 +00000-0 +29478-4 0  9990
2 39417 097.5626 298.1026 0058817 356.3117 003.7655 14.81162367319068
TRITON 1
1 39427U 13066M   19291.40714043  .00000160  00000-0  33199-4 0  9992
2 39427  97.6918 261.3601 0114726 135.2563 225.7968 14.67890757316195
GOMX 1
1 39430U 13066Q   19291.94858116 +.00000130 +00000-0 +32800-4 0  9990
2 39430 097.7601 240.5291 0149958 228.5568 130.2677 14.59296912314435
HUMSAT D
1 39433U 13066T   19291.92299350 +.00000404 +00000-0 +44640-4 0  9999
2 39433 097.5406 334.3530 0029297 251.7396 108.0635 14.92273104320122
CUBEBUG 2
1 39440U 13066AA  19291.44839191  .00000204  00000-0  35126-4 0  9994
2 39440  97.6104 282.7442 0081389  50.1239 310.7092 14.75899284317939
FUNCUBE 1
1 39444U 13066AE  19291.84878786 +.00000230 +00000-0 +34626-4 0  9998
2 39444 097.5597 300.5454 0057710 348.3139 011.6731 14.81991280317430
UWE-3
1 39446U 13066AG  19291.71768587  .00000190  00000-0  31756-4 0  9999
2 39446  97.5858 290.1387 0070611  23.0225 337.4125 14.78434788317290
SPROUT
1 39770U 14029E   19291.53018260  .00000554  00000-0  67197-4 0  9997
2 39770  97.8897  34.0714 0010042  49.9654 310.2446 14.87460562292948
UNISAT 6
1 40012U 14033C   19291.93495083 +.00000155 +00000-0 +30354-4 0  9991
2 40012 097.7391 153.1721 0059645 063.9561 296.7772 14.74019061286698
DUCHIFAT 1
1 40021U 14033M   19291.84672907 +.00000276 +00000-0 +34001-4 0  9990
2 40021 097.9253 216.8489 0013378 013.6931 346.4647 14.90707237289741
QB50P1
1 40025U 14033R   19291.53720608  .00000284  00000-0  36157-4 0  9995
2 40025  97.9042 211.0109 0013073  24.5776 335.6061 14.88999776289453
CHUBUSAT 1
1 40300U 14070C   19291.74984237  .00000442  00000-0  22147-4 0  9995
2 40300  97.3166   2.7878 0020162 350.4831 163.8256 15.22207040274588
NUDT-PHONESAT
1 40900U 15049B   19291.91830926 +.00001631 +00000-0 +71927-4 0  9993
2 40900 097.4372 300.0797 0014368 112.9419 334.8233 15.23148014226265
ZDPS 2A
1 40901U 15049C   19291.90593450 +.00000477 +00000-0 +26844-4 0  9996
2 40901 097.4622 295.9854 0014553 132.9538 319.1475 15.17875553225777
ZDPS 2B
1 40902U 15049D   19291.88282590 +.00000943 +00000-0 +49943-4 0  9997
2 40902 097.4575 293.3607 0014610 129.5867 347.0763 15.17744315225742
XW-2A
1 40903U 15049E   19291.91332497 +.00001585 +00000-0 +38838-4 0  9998
2 40903 097.3243 335.3016 0015231 065.1139 059.3354 15.42199963229083
KAITUO 1A
1 40904U 15049F   19291.95510855 +.00000385 +00000-0 +23783-4 0  9999
2 40904 097.4710 291.9027 0015751 139.2522 305.4708 15.15464953225515
OBJECT G
1 40905U 15049G   19291.86466733 +.00000539 +00000-0 +32863-4 0  9995
2 40905 097.4764 289.2384 0016615 135.1828 343.9595 15.14366414225361
XW-2C
1 40906U 15049H   19291.87064910 +.00000661 +00000-0 +38016-4 0  9990
2 40906 097.4713 291.9575 0015800 130.5036 347.4940 15.15785599225502
XW-2D
1 40907U 15049J   19291.83361204  .00000311  00000-0  19635-4 0  9991
2 40907  97.4697 291.6021 0015214 127.8239 354.4131 15.15980042225511
LILACSAT 2
1 40908U 15049K   19291.87816823 +.00000367 +00000-0 +23844-4 0  9996
2 40908 097.4833 290.3354 0016724 135.1485 317.3772 15.13868138225294
XW-2F
1 40910U 15049M   19291.86952189 +.00000939 +00000-0 +50109-4 0  9993
2 40910 097.4657 293.8243 0016088 120.5560 324.8540 15.17472074225549
XW-2B
1 40911U 15049N   19291.86510132 +.00000743 +00000-0 +42155-4 0  9997
2 40911 097.4715 292.3034 0015163 128.7030 316.1417 15.15911976225412
KAITUO 1B
1 40912U 15049P   19291.91207193 +.00000810 +00000-0 +40933-4 0  9991
2 40912 097.4508 297.7010 0016523 104.1756 343.5028 15.19803962225871
TIANWANG 1C (TW-1C)
1 40926U 15051B   19291.91165821  .00012046  00000-0  16159-3 0  9996
2 40926  97.1216 338.0133 0005498 279.5438 184.6017 15.58079732229179
TIANWANG 1B (TW-1B)
1 40927U 15051C   19291.93845113 +.00011217 +00000-0 +16061-3 0  9999
2 40927 097.1247 337.1585 0005597 292.2103 191.0492 15.56335944229016
